Location: Unspecified
(0.0000°N, 0.0000°E)
Time: 11:24:47
(UTC+00:00)

Explorer 7 - All Passes

Search period start: 25 November 2017 00:00
Search period end: 05 December 2017 00:00
Orbit: 486 x 683 km, 50.3° (Epoch: 24 November)

Date Brightness Start Highest point End Pass type
(mag) Time Alt. Az. Time Alt. Az. Time Alt. Az.
25 Nov - 05:38:24 10° SE 05:39:37 11° SE 05:40:51 10° ESE daylight
25 Nov - 07:16:07 10° WSW 07:19:56 39° NW 07:23:58 10° NNE daylight
25 Nov - 17:39:34 10° N 17:43:00 20° NE 17:46:18 10° E daylight
25 Nov - 19:19:32 10° WNW 19:23:28 28° SW 19:27:13 10° S visible
26 Nov - 05:41:54 10° S 05:45:09 24° SE 05:48:31 10° ENE daylight
26 Nov - 07:22:39 10° W 07:25:32 18° NW 07:28:34 10° N daylight
26 Nov - 17:44:11 10° NNW 17:48:36 40° NE 17:52:49 10° ESE daylight
26 Nov - 19:26:39 10° W 19:29:00 14° SW 19:31:17 10° SSW visible
27 Nov - 05:46:47 10° SSW 05:50:39 53° SE 05:54:44 10° NE daylight
27 Nov - 17:49:26 10° NW 17:54:10 86° NE 17:58:38 10° SE daylight
28 Nov - 05:52:16 10° SW 05:56:11 64° NW 06:00:20 10° NNE daylight
28 Nov - 16:16:44 10° NNE 16:19:06 14° NE 16:21:27 10° E daylight
28 Nov - 17:55:11 10° NW 17:59:41 44° SW 18:03:58 10° SSE daylight
29 Nov - 04:19:13 10° SSE 04:21:26 15° SE 04:23:42 10° E visible
29 Nov - 05:58:20 10° WSW 06:01:45 27° NW 06:05:20 10° N daylight
29 Nov - 16:20:42 10° N 16:24:45 27° NE 16:28:39 10° ESE daylight
29 Nov - 18:01:35 10° WNW 18:05:12 22° SW 18:08:41 10° S daylight
30 Nov - 04:23:29 10° S 04:26:57 31° SE 04:30:34 10° ENE visible
30 Nov - 06:05:28 10° W 06:07:23 13° NW 06:09:21 10° NNW daylight
30 Nov - 16:25:37 10° NNW 16:30:19 55° NE 16:34:50 10° SE daylight
30 Nov - 18:09:37 10° WSW 18:10:44 11° SW 18:11:51 10° SW visible
01 Dec - 04:28:37 10° SSW 04:32:28 76° SE 04:36:31 10° NE visible
01 Dec - 16:31:03 10° NW 16:35:51 71° SW 16:40:26 10° SSE daylight
02 Dec - 04:34:19 10° SW 04:38:00 44° NW 04:41:52 10° NNE visible
02 Dec - 14:57:30 10° N 15:00:51 18° NE 15:04:08 10° E daylight
02 Dec - 16:37:01 10° WNW 16:41:22 34° SW 16:45:33 10° SSE daylight
03 Dec - 03:00:28 10° S 03:03:15 19° SE 03:06:06 10° E visible
03 Dec - 04:40:43 10° W 04:43:36 20° NW 04:46:34 10° N visible
03 Dec - 15:01:59 10° NNW 15:06:27 36° NE 15:10:46 10° ESE daylight
03 Dec - 16:43:46 10° W 16:46:54 17° SW 16:49:58 10° SSW daylight
04 Dec - 03:05:09 10° SSW 03:08:47 43° SE 03:12:31 10° NE night (unlit)
04 Dec - 15:07:07 10° NNW 15:11:59 74° NE 15:16:42 10° SE daylight
